Time,TemperatureF,DewpointF,PressureIn,WindDirection,WindDirectionDegrees,WindSpeedMPH,WindSpeedGustMPH,Humidity,HourlyPrecipIn,Conditions,Clouds,dailyrainin,SolarRadiationWatts/m^2,SoftwareType,DateUTC
2013-11-11 02:23:00,70.0,15.0,30.05,SW,220,12.0,22.0,12,-99.99,,,-99.99,0.000000,,2013-11-11 10:23:00,
2013-11-11 02:52:00,70.0,15.0,30.04,SW,216,10.0,16.0,12,-99.99,,,-99.99,0.000000,,2013-11-11 10:52:00,
2013-11-11 03:03:00,70.0,15.0,30.04,SW,216,10.0,16.0,12,-99.99,,,-99.99,0.000000,,2013-11-11 11:03:00,
2013-11-11 03:42:00,69.0,15.0,30.04,SW,217,10.0,17.0,12,-99.99,,,-99.99,0.000000,,2013-11-11 11:42:00,
2013-11-11 06:11:00,69.0,16.0,30.06,SW,220,11.0,20.0,13,-99.99,,,-99.99,0.000000,,2013-11-11 14:11:00,
2013-11-11 06:42:00,69.0,18.0,30.06,SW,225,11.0,16.0,14,-99.99,,,-99.99,0.000000,,2013-11-11 14:42:00,
2013-11-11 07:11:00,70.0,18.0,30.06,SW,216,11.0,17.0,14,-99.99,,,-99.99,10.000000,,2013-11-11 15:11:00,
2013-11-11 07:21:00,69.0,20.0,30.07,SW,216,11.0,17.0,15,-99.99,,,-99.99,10.000000,,2013-11-11 15:21:00,
2013-11-11 08:23:00,72.0,25.0,30.09,SSW,208,10.0,16.0,17,-99.99,,,-99.99,220.000000,,2013-11-11 16:23:00,
2013-11-11 09:22:00,76.0,22.0,30.09,South,190,3.0,4.0,13,-99.99,,,-99.99,400.000000,,2013-11-11 17:22:00,
2013-11-11 10:42:00,83.0,21.0,30.07,SSE,167,2.0,3.0,10,-99.99,,,-99.99,590.000000,,2013-11-11 18:42:00,
2013-11-11 11:22:00,83.0,23.0,30.07,NNE,30,4.0,7.0,11,-99.99,,,-99.99,650.000000,,2013-11-11 19:22:00,
2013-11-11 12:11:00,85.0,27.0,30.06,NNE,26,1.0,4.0,12,-99.99,,,-99.99,680.000000,,2013-11-11 20:11:00,
2013-11-11 12:22:00,86.0,27.0,30.05,NNE,26,2.0,5.0,12,-99.99,,,-99.99,680.000000,,2013-11-11 20:22:00,
2013-11-11 12:42:00,85.0,29.0,30.04,WSW,242,2.0,6.0,13,-99.99,,,-99.99,670.000000,,2013-11-11 20:42:00,
2013-11-11 13:21:00,85.0,30.0,30.02,North,357,3.0,8.0,14,-99.99,,,-99.99,620.000000,,2013-11-11 21:21:00,
2013-11-11 13:43:00,86.0,31.0,30.01,North,0,3.0,7.0,14,-99.99,,,-99.99,590.000000,,2013-11-11 21:43:00,
2013-11-11 13:54:00,86.0,31.0,30.02,NW,309,2.0,5.0,14,-99.99,,,-99.99,570.000000,,2013-11-11 21:54:00,
2013-11-11 14:04:00,86.0,31.0,30.02,NW,309,2.0,5.0,14,-99.99,,,-99.99,570.000000,,2013-11-11 22:04:00,
2013-11-11 14:23:00,87.0,32.0,30.02,ESE,110,2.0,6.0,14,-99.99,,,-99.99,530.000000,,2013-11-11 22:23:00,
2013-11-11 15:10:00,86.0,30.0,30.01,NE,43,3.0,6.0,13,-99.99,,,-99.99,280.000000,,2013-11-11 23:10:00,
2013-11-11 15:22:00,88.0,29.0,30.01,South,186,2.0,5.0,12,-99.99,,,-99.99,380.000000,,2013-11-11 23:22:00,
2013-11-11 15:42:00,87.0,28.0,30.01,ESE,118,3.0,5.0,12,-99.99,,,-99.99,320.000000,,2013-11-11 23:42:00,
2013-11-11 15:53:00,86.0,30.0,30.01,NE,43,3.0,6.0,13,-99.99,,,-99.99,280.000000,,2013-11-11 23:53:00,
2013-11-11 16:02:00,86.0,30.0,30.01,NE,43,3.0,6.0,13,-99.99,,,-99.99,280.000000,,2013-11-12 00:02:00,
2013-11-11 17:21:00,81.0,27.0,30.00,SSW,193,5.0,6.0,14,-99.99,,,-99.99,0.000000,,2013-11-12 01:21:00,
2013-11-11 18:21:00,79.0,28.0,30.02,SSW,200,10.0,17.0,15,-99.99,,,-99.99,0.000000,,2013-11-12 02:21:00,
2013-11-11 19:11:00,79.0,27.0,30.04,SSW,202,10.0,16.0,15,-99.99,,,-99.99,0.000000,,2013-11-12 03:11:00,
2013-11-11 19:21:00,78.0,28.0,30.04,SSW,198,10.0,14.0,16,-99.99,,,-99.99,0.000000,,2013-11-12 03:21:00,
2013-11-11 20:13:00,78.0,28.0,30.06,SSW,206,10.0,15.0,16,-99.99,,,-99.99,0.000000,,2013-11-12 04:13:00,
2013-11-11 20:24:00,77.0,28.0,30.06,SSW,210,8.0,13.0,16,-99.99,,,-99.99,0.000000,,2013-11-12 04:24:00,
2013-11-11 20:43:00,78.0,28.0,30.07,SW,224,12.0,17.0,16,-99.99,,,-99.99,0.000000,,2013-11-12 04:43:00,
2013-11-11 21:23:00,76.0,28.0,30.08,SSW,213,12.0,18.0,17,-99.99,,,-99.99,0.000000,,2013-11-12 05:23:00,
2013-11-11 21:43:00,76.0,28.0,30.09,SSW,209,13.0,19.0,17,-99.99,,,-99.99,0.000000,,2013-11-12 05:43:00,
2013-11-11 22:13:00,76.0,28.0,30.09,SW,216,12.0,19.0,17,-99.99,,,-99.99,0.000000,,2013-11-12 06:13:00,
2013-11-11 22:42:00,75.0,27.0,30.10,SW,217,11.0,17.0,17,-99.99,,,-99.99,0.000000,,2013-11-12 06:42:00,
2013-11-11 23:21:00,75.0,26.0,30.09,SW,226,12.0,17.0,16,-99.99,,,-99.99,0.000000,,2013-11-12 07:21:00,